Location: Newark
(20.5800°N, 87.1197°W)
Time: 03:35:59
(UTC+00:00)

N. Korean satellite - Pass Details

Date: 09 August 2020
Orbit: 455 x 503 km, 97.2° (Epoch: 22 September)

Event Time Altitude Azimuth Distance (km) Brightness Sun altitude
Rises 10:16:11 0° 42° (NE) 2,529 11.5 -16.2°
Reaches altitude 10° 10:19:32 10° 77° (ENE) 1,661 10.6 -15.4°
Maximum altitude 10:20:45 11° 97° (E) 1,578 10.1 -15.2°
Drops below altitude 10° 10:21:57 10° 117° (ESE) 1,668 9.8 -14.9°
Sets 10:25:20 0° 152° (SSE) 2,558 10.3 -14.2°
